| time (UTC) | temp F | wind direction | speed knots | gust knots | rain 1hr in | rain 24hr in | rain mn in | humidity % | barometer mb |
| 20260507171558 | 0 | 63 | 1.7 | 3.5 | 0.00 | 0.00 | 0.00 | 1016.7 | |
| 20260507170553 | 100 | 83 | 1.7 | 6.1 | 0.00 | 0.00 | 0.00 | 99 | 1016.5 |
| 20260507165549 | 58 | 49 | 1.7 | 7.0 | 0.00 | 0.00 | 0.00 | 99 | 1016.3 |
| 20260507164546 | 36 | 92 | 1.7 | 5.2 | 0.00 | 0.00 | 0.00 | 99 | 1016.3 |
| 20260507163541 | 30 | 87 | 1.7 | 3.5 | 0.00 | 0.00 | 0.00 | 98 | 1016.2 |
| 20260507162558 | 30 | 65 | 1.7 | 5.2 | 0.00 | 0.00 | 0.00 | 98 | 1016.1 |
| 20260507161535 | 30 | 74 | 2.6 | 6.1 | 0.00 | 0.00 | 0.00 | 96 | 1016.0 |
| 20260507160531 | 30 | 65 | 2.6 | 5.2 | 0.00 | 0.00 | 0.00 | 98 | 1016.0 |
| 20260507155549 | 30 | 161 | 1.7 | 5.2 | 0.00 | 0.00 | 0.00 | 97 | 1016.0 |
| 20260507154525 | 30 | 71 | 1.7 | 5.2 | 0.00 | 0.00 | 0.00 | 99 | 1016.0 |
| 20260507153520 | 30 | 68 | 1.7 | 6.1 | 0.00 | 0.00 | 0.00 | 99 | 1015.9 |
| 20260507152516 | 30 | 189 | 2.6 | 7.8 | 0.00 | 0.00 | 0.00 | 94 | 1015.8 |
| 20260507151612 | 30 | 111 | 1.7 | 3.5 | 0.00 | 0.00 | 0.00 | 98 | 1015.8 |
| 20260507150609 | 30 | 83 | 1.7 | 6.1 | 0.00 | 0.00 | 0.00 | 96 | 1015.8 |
| 20260507145605 | 30 | 68 | 2.6 | 5.2 | 0.00 | 0.00 | 0.00 | 93 | 1015.7 |
| 20260507144602 | 30 | 116 | 2.6 | 7.0 | 0.00 | 0.00 | 0.00 | 94 | 1015.7 |
| 20260507143557 | 30 | 63 | 4.3 | 9.6 | 0.00 | 0.00 | 0.00 | 98 | 1015.6 |
| 20260507142614 | 30 | 8 | 2.6 | 6.1 | 0.00 | 0.00 | 0.00 | 98 | 1015.6 |
| 20260507141549 | 30 | 56 | 5.2 | 14.8 | 0.00 | 0.00 | 0.00 | 97 | 1015.6 |
| 20260507140545 | 30 | 47 | 1.7 | 3.5 | 0.00 | 0.00 | 0.00 | 96 | 1015.7 |
| 20260507135540 | 30 | 359 | 2.6 | 7.8 | 0.00 | 0.00 | 0.00 | 98 | 1015.6 |
| 20260507134536 | 30 | 92 | 2.6 | 6.1 | 0.00 | 0.00 | 0.00 | 99 | 1015.6 |
| 20260507133553 | 30 | 51 | 7.8 | 13.0 | 0.00 | 0.00 | 0.00 | 99 | 1015.6 |
| 20260507132529 | 30 | 55 | 1.7 | 3.5 | 0.00 | 0.00 | 0.00 | 96 | 1015.7 |
| 20260507131546 | 30 | 90 | 6.1 | 13.0 | 0.00 | 0.00 | 0.00 | 97 | 1015.5 |
| 20260507130521 | 30 | 88 | 2.6 | 6.1 | 0.00 | 0.00 | 0.00 | 96 | 1015.4 |
| 20260507125537 | 30 | 29 | 4.3 | 9.6 | 0.00 | 0.00 | 0.00 | 97 | 1015.4 |
| 20260507124613 | 30 | 122 | 1.7 | 5.2 | 0.00 | 0.00 | 0.00 | 98 | 1015.5 |
| 20260507123610 | 30 | 97 | 1.7 | 7.0 | 0.00 | 0.00 | 0.00 | 99 | 1015.4 |
| 20260507122627 | 30 | 68 | 2.6 | 7.0 | 0.00 | 0.00 | 0.00 | 98 | 1015.2 |
| 20260507121603 | 30 | 55 | 1.7 | 9.6 | 0.00 | 0.00 | 0.00 | 98 | 1015.2 |
| 20260507120600 | 30 | 23 | 1.7 | 7.0 | 0.00 | 0.00 | 0.00 | 93 | 1015.0 |
| 20260507115556 | 30 | 143 | 1.7 | 5.2 | 0.00 | 0.00 | 0.00 | 99 | 1015.1 |
| 20260507114553 | 30 | 336 | 2.6 | 6.1 | 0.00 | 0.00 | 0.00 | 97 | 1015.2 |
| 20260507113548 | 30 | 37 | 1.7 | 7.0 | 0.00 | 0.00 | 0.00 | 99 | 1015.2 |
| 20260507112545 | 38 | 188 | 1.7 | 6.1 | 0.00 | 0.00 | 0.00 | 98 | 1015.1 |
| 20260507111540 | 0 | 76 | 1.7 | 6.1 | 0.00 | 0.00 | 0.00 | 99 | 1015.2 |
| 20260507110537 | 112 | 56 | 2.6 | 9.6 | 0.00 | 0.00 | 0.00 | 91 | 1015.2 |
| 20260507105533 | 0 | 90 | 3.5 | 11.3 | 0.00 | 0.00 | 0.00 | 38 | 1015.1 |
| 20260507104550 | 0 | 93 | 3.5 | 9.6 | 0.00 | 0.00 | 0.00 | 1015.1 | |
| 20260507103546 | 0 | 45 | 4.3 | 7.8 | 0.00 | 0.00 | 0.00 | 49 | 1015.0 |
| 20260507102522 | 0 | 78 | 5.2 | 12.2 | 0.00 | 0.00 | 0.00 | 99 | 1015.0 |
| 20260507101517 | 0 | 21 | 5.2 | 13.9 | 0.00 | 0.00 | 0.00 | 59 | 1014.9 |
| 20260507100615 | 0 | 133 | 2.6 | 5.2 | 0.00 | 0.00 | 0.00 | 99 | 1014.7 |
| 20260507095628 | 0 | 9 | 1.7 | 7.0 | 0.00 | 0.00 | 0.00 | 99 | 1014.9 |
| 20260507094604 | 0 | 8 | 2.6 | 9.6 | 0.00 | 0.00 | 0.00 | 69 | 1014.6 |
| 20260507093601 | 0 | 74 | 2.6 | 7.8 | 0.00 | 0.00 | 0.00 | 69 | 1014.6 |
| 20260507092558 | 0 | 22 | 5.2 | 11.3 | 0.00 | 0.00 | 0.00 | 84 | 1014.5 |
| 20260507091554 | 0 | 100 | 1.7 | 7.8 | 0.00 | 0.00 | 0.00 | 59 | 1014.5 |
| 20260507090552 | 0 | 346 | 2.6 | 7.0 | 0.00 | 0.00 | 0.00 | 39 | 1014.4 |
| 20260507085546 | 0 | 93 | 6.1 | 11.3 | 0.00 | 0.00 | 0.00 | 99 | 1014.3 |
| 20260507084542 | 0 | 52 | 2.6 | 9.6 | 0.00 | 0.00 | 0.00 | 89 | 1014.3 |
| 20260507083539 | 0 | 57 | 7.0 | 12.2 | 0.00 | 0.00 | 0.00 | 68 | 1014.1 |
| 20260507082535 | 0 | 75 | 4.3 | 9.6 | 0.00 | 0.00 | 0.00 | 1014.1 | |
| 20260507081531 | 0 | 27 | 10.4 | 15.6 | 0.00 | 0.00 | 0.00 | 1014.0 | |
| 20260507080528 | 0 | 41 | 7.8 | 14.8 | 0.00 | 0.00 | 0.00 | 1013.9 | |
| 20260507075525 | 30 | 28 | 7.8 | 12.2 | 0.00 | 0.00 | 0.00 | 93 | 1013.8 |
| 20260507074541 | 30 | 45 | 7.8 | 13.0 | 0.00 | 0.00 | 0.00 | 93 | 1013.9 |
| 20260507073518 | 30 | 25 | 6.1 | 11.3 | 0.00 | 0.00 | 0.00 | 98 | 1014.0 |
| 20260507072613 | 30 | 46 | 6.1 | 9.6 | 0.00 | 0.00 | 0.00 | 96 | 1013.9 |
| 20260507071608 | 30 | 40 | 6.1 | 9.6 | 0.00 | 0.00 | 0.00 | 96 | 1013.8 |
| 20260507070605 | 30 | 40 | 3.5 | 7.8 | 0.00 | 0.00 | 0.00 | 97 | 1013.6 |
| 20260507065602 | 30 | 37 | 11.3 | 14.8 | 0.00 | 0.00 | 0.00 | 93 | 1013.6 |
| 20260507064558 | 30 | 26 | 8.7 | 13.0 | 0.00 | 0.00 | 0.00 | 93 | 1013.5 |
| 20260507063614 | 30 | 42 | 8.7 | 12.2 | 0.00 | 0.00 | 0.00 | 97 | 1013.5 |
| 20260507062611 | 30 | 39 | 8.7 | 12.2 | 0.00 | 0.00 | 0.00 | 99 | 1013.4 |
| 20260507061545 | 30 | 34 | 8.7 | 13.0 | 0.00 | 0.00 | 0.00 | 99 | 1013.1 |
| 20260507060541 | 30 | 68 | 7.0 | 9.6 | 0.00 | 0.00 | 0.00 | 99 | 1013.2 |
| 20260507055536 | 30 | 59 | 7.8 | 12.2 | 0.00 | 0.00 | 0.00 | 99 | 1013.1 |
| 20260507054532 | 30 | 66 | 5.2 | 9.6 | 0.00 | 0.00 | 0.00 | 99 | 1013.1 |
| 20260507053528 | 30 | 30 | 7.8 | 11.3 | 0.00 | 0.00 | 0.00 | 99 | 1012.9 |
| 20260507052526 | 30 | 56 | 5.2 | 9.6 | 0.00 | 0.00 | 0.00 | 99 | 1012.8 |
| 20260507051522 | 30 | 58 | 5.2 | 9.6 | 0.00 | 0.00 | 0.00 | 99 | 1012.7 |
| 20260507050517 | 30 | 54 | 3.5 | 7.8 | 0.00 | 0.00 | 0.00 | 99 | 1012.6 |
| 20260507045614 | 30 | 40 | 4.3 | 7.0 | 0.00 | 0.00 | 0.00 | 99 | 1012.5 |
| 20260507044629 | 30 | 78 | 4.3 | 7.8 | 0.00 | 0.00 | 0.00 | 98 | 1012.6 |
| 20260507043606 | 30 | 48 | 6.1 | 9.6 | 0.00 | 0.00 | 0.00 | 96 | 1012.4 |
| 20260507042603 | 30 | 30 | 4.3 | 7.0 | 0.00 | 0.00 | 0.00 | 98 | 1012.3 |
| 20260507041600 | 30 | 38 | 6.1 | 9.6 | 0.00 | 0.00 | 0.00 | 93 | 1012.4 |
| 20260507040556 | 30 | 34 | 8.7 | 12.2 | 0.00 | 0.00 | 0.00 | 95 | 1012.2 |
| 20260507035553 | 30 | 40 | 7.8 | 11.3 | 0.00 | 0.00 | 0.00 | 98 | 1012.2 |
| 20260507034549 | 30 | 42 | 8.7 | 13.0 | 0.00 | 0.00 | 0.00 | 95 | 1011.9 |
| 20260507033545 | 30 | 30 | 9.6 | 13.9 | 0.00 | 0.00 | 0.00 | 95 | 1011.9 |
| 20260507032601 | 30 | 45 | 8.7 | 11.3 | 0.00 | 0.00 | 0.00 | 94 | 1012.0 |
| 20260507031537 | 30 | 46 | 7.8 | 9.6 | 0.00 | 0.00 | 0.00 | 95 | 1011.9 |
| 20260507030533 | 30 | 51 | 4.3 | 7.0 | 0.00 | 0.00 | 0.00 | 94 | 1012.1 |
| 20260507025530 | 30 | 39 | 5.2 | 9.6 | 0.00 | 0.00 | 0.00 | 95 | 1012.0 |
| 20260507024526 | 30 | 33 | 7.0 | 9.6 | 0.00 | 0.00 | 0.00 | 95 | 1011.9 |
| 20260507023522 | 30 | 37 | 8.7 | 13.0 | 0.00 | 0.00 | 0.00 | 97 | 1011.8 |
| 20260507022517 | 30 | 37 | 8.7 | 12.2 | 0.00 | 0.00 | 0.00 | 99 | 1011.7 |
| 20260507021634 | 30 | 44 | 7.8 | 11.3 | 0.00 | 0.00 | 0.00 | 99 | 1011.7 |
| 20260507020610 | 30 | 40 | 5.2 | 9.6 | 0.00 | 0.00 | 0.00 | 99 | 1011.6 |
| 20260507015604 | 30 | 43 | 7.0 | 11.3 | 0.00 | 0.00 | 0.00 | 99 | 1011.6 |
| 20260507014622 | 30 | 41 | 7.8 | 11.3 | 0.00 | 0.00 | 0.00 | 99 | 1011.5 |
| 20260507013557 | 30 | 42 | 7.0 | 12.2 | 0.00 | 0.00 | 0.00 | 99 | 1011.4 |
| 20260507012553 | 30 | 38 | 8.7 | 13.0 | 0.00 | 0.00 | 0.00 | 99 | 1011.2 |
| 20260507011551 | 30 | 38 | 7.8 | 12.2 | 0.00 | 0.00 | 0.00 | 99 | 1011.3 |
| 20260507010546 | 30 | 70 | 6.1 | 9.6 | 0.00 | 0.00 | 0.00 | 99 | 1011.1 |
| 20260507005541 | 30 | 64 | 7.8 | 9.6 | 0.00 | 0.00 | 0.00 | 99 | 1011.1 |
| 20260507004537 | 30 | 41 | 8.7 | 12.2 | 0.00 | 0.00 | 0.00 | 99 | 1011.1 |
| 20260507003533 | 30 | 30 | 8.7 | 11.3 | 0.00 | 0.00 | 0.00 | 97 | 1011.0 |
| 20260507002551 | 30 | 33 | 9.6 | 13.0 | 0.00 | 0.00 | 0.00 | 94 | 1011.0 |
| 20260507001527 | 30 | 38 | 7.0 | 11.3 | 0.00 | 0.00 | 0.00 | 93 | 1011.0 |
| 20260507000524 | 30 | 45 | 7.8 | 11.3 | 0.00 | 0.00 | 0.00 | 99 | 1011.0 |
| 20260506235520 | 30 | 41 | 7.8 | 12.2 | 0.00 | 0.00 | 0.00 | 96 | 1011.1 |
| 20260506234517 | 30 | 55 | 9.6 | 13.9 | 0.00 | 0.00 | 0.00 | 94 | 1010.8 |
| 20260506233612 | 30 | 36 | 7.0 | 13.0 | 0.00 | 0.00 | 0.00 | 96 | 1010.8 |
| 20260506232608 | 30 | 34 | 7.8 | 12.2 | 0.00 | 0.00 | 0.00 | 95 | 1010.8 |
| 20260506231603 | 30 | 52 | 7.8 | 12.2 | 0.00 | 0.00 | 0.00 | 93 | 1010.8 |
| 20260506230600 | 30 | 34 | 9.6 | 13.0 | 0.00 | 0.00 | 0.00 | 98 | 1010.9 |
| 20260506225557 | 30 | 34 | 9.6 | 12.2 | 0.00 | 0.00 | 0.00 | 99 | 1010.7 |
| 20260506224553 | 30 | 56 | 7.8 | 12.2 | 0.00 | 0.00 | 0.00 | 97 | 1010.5 |
| 20260506223609 | 30 | 27 | 7.8 | 12.2 | 0.00 | 0.00 | 0.00 | 96 | 1010.6 |
| 20260506222544 | 30 | 33 | 8.7 | 11.3 | 0.00 | 0.00 | 0.00 | 93 | 1010.5 |
| 20260506221540 | 30 | 45 | 7.0 | 9.6 | 0.00 | 0.00 | 0.00 | 97 | 1010.6 |
| 20260506220556 | 30 | 50 | 6.1 | 9.6 | 0.00 | 0.00 | 0.00 | 95 | 1010.6 |
| 20260506215532 | 30 | 49 | 5.2 | 11.3 | 0.00 | 0.00 | 0.00 | 99 | 1010.5 |
| 20260506214527 | 30 | 60 | 2.6 | 5.2 | 0.00 | 0.00 | 0.00 | 99 | 1010.4 |
| 20260506213523 | 30 | 168 | 4.3 | 7.0 | 0.00 | 0.00 | 0.00 | 99 | 1010.4 |
| 20260506212521 | 30 | 115 | 4.3 | 7.0 | 0.00 | 0.00 | 0.00 | 99 | 1010.3 |
| 20260506211517 | 30 | 7 | 4.3 | 12.2 | 0.00 | 0.00 | 0.00 | 99 | 1010.2 |
| 20260506210633 | 30 | 151 | 4.3 | 11.3 | 0.00 | 0.00 | 0.00 | 99 | 1009.9 |
| 20260506205629 | 30 | 51 | 5.2 | 15.6 | 0.00 | 0.00 | 0.00 | 99 | 1010.2 |
| 20260506204605 | 30 | 71 | 5.2 | 12.2 | 0.00 | 0.00 | 0.00 | 96 | 1010.2 |
| 20260506203600 | 30 | 15 | 4.3 | 9.6 | 0.00 | 0.00 | 0.00 | 93 | 1010.2 |
| 20260506202557 | 30 | 306 | 3.5 | 7.8 | 0.00 | 0.00 | 0.00 | 93 | 1010.1 |
| 20260506201554 | 30 | 108 | 5.2 | 11.3 | 0.00 | 0.00 | 0.00 | 93 | 1010.0 |
| 20260506200610 | 30 | 116 | 4.3 | 7.8 | 0.00 | 0.00 | 0.00 | 93 | 1010.0 |
| 20260506195547 | 30 | 129 | 2.6 | 6.1 | 0.00 | 0.00 | 0.00 | 93 | 1010.0 |
| 20260506194545 | 30 | 85 | 2.6 | 7.8 | 0.00 | 0.00 | 0.00 | 93 | 1009.9 |
| 20260506193539 | 30 | 103 | 2.6 | 7.0 | 0.00 | 0.00 | 0.00 | 93 | 1009.9 |
| 20260506192535 | 30 | 78 | 1.7 | 6.1 | 0.00 | 0.00 | 0.00 | 95 | 1010.1 |
| 20260506191531 | 30 | 38 | 2.6 | 7.8 | 0.00 | 0.00 | 0.00 | 96 | 1010.0 |
| 20260506190528 | 30 | 127 | 2.6 | 7.0 | 0.00 | 0.00 | 0.00 | 95 | 1009.9 |
| 20260506185524 | 30 | 33 | 3.5 | 9.6 | 0.00 | 0.00 | 0.00 | 93 | 1009.8 |
| 20260506184521 | 30 | 39 | 5.2 | 14.8 | 0.00 | 0.00 | 0.00 | 93 | 1009.7 |
| 20260506183516 | 30 | 82 | 3.5 | 9.6 | 0.00 | 0.00 | 0.00 | 93 | 1009.8 |
| 20260506182612 | 30 | 116 | 2.6 | 9.6 | 0.00 | 0.00 | 0.00 | 93 | 1009.5 |
| 20260506181607 | 30 | 316 | 4.3 | 9.6 | 0.00 | 0.00 | 0.00 | 93 | 1009.4 |
| 20260506180603 | 30 | 0 | 3.5 | 7.0 | 0.00 | 0.00 | 0.00 | 93 | 1009.2 |
| 20260506175559 | 30 | 75 | 2.6 | 7.0 | 0.00 | 0.00 | 0.00 | 93 | 1009.3 |
| 20260506174554 | 30 | 75 | 3.5 | 7.8 | 0.00 | 0.00 | 0.00 | 93 | 1009.2 |
| 20260506173552 | 30 | 91 | 2.6 | 9.6 | 0.00 | 0.00 | 0.00 | 96 | 1009.1 |
| 20260506172548 | 30 | 94 | 4.3 | 9.6 | 0.00 | 0.00 | 0.00 | 96 | 1008.9 |